2023/02/03 00:00:00,79.8, 0.0
2023/02/03 00:10:00,79.8, 0.1
2023/02/03 00:20:00,79.7, 0.1
2023/02/03 00:30:00,79.7, 0.0
2023/02/03 00:40:00,79.7, 0.1
2023/02/03 00:50:00,79.7,-0.2
2023/02/03 01:00:00,79.6,-0.2
2023/02/03 01:10:00,79.6,-0.1
2023/02/03 01:20:00,79.6,-0.2
2023/02/03 01:30:00,79.5,-0.2
2023/02/03 01:40:00,79.2,-0.1
2023/02/03 01:50:00,79.1,-0.1
2023/02/03 02:00:00,79.0,-0.1
2023/02/03 02:10:00,78.7,-0.7
2023/02/03 02:20:00,78.5,-0.6
2023/02/03 02:30:00,78.4,-0.7
2023/02/03 02:40:00,78.2,-0.9
2023/02/03 02:50:00,78.2,-0.9
2023/02/03 03:00:00,78.1,-1.0
2023/02/03 03:10:00,77.9,-0.9
2023/02/03 03:20:00,78.0,-0.7
2023/02/03 03:30:00,77.9,-0.7
2023/02/03 03:40:00,77.8,-0.7
2023/02/03 03:50:00,77.8,-0.6
2023/02/03 04:00:00,77.5,-0.6
2023/02/03 04:10:00,77.3,-0.6
2023/02/03 04:20:00,77.4,-1.1
2023/02/03 04:30:00,77.4,-0.9
2023/02/03 04:40:00,77.3,-0.7
2023/02/03 04:50:00,77.2,-0.5
2023/02/03 05:00:00,77.1,-0.4
2023/02/03 05:10:00,77.1,-0.3
2023/02/03 05:20:00,77.2,-0.6
2023/02/03 05:30:00,77.3,-0.6
2023/02/03 05:40:00,77.5,-0.9
2023/02/03 05:50:00,77.6,-0.7
2023/02/03 06:00:00,77.7,-0.8
2023/02/03 06:10:00,77.7,-0.5
2023/02/03 06:20:00,77.8,-0.5
2023/02/03 06:30:00,77.8,-0.7
2023/02/03 06:40:00,77.9,-0.9
2023/02/03 06:50:00,77.9,-1.1
2023/02/03 07:00:00,77.8,-1.0
2023/02/03 07:10:00,77.8,-1.0
2023/02/03 07:20:00,77.8,-0.6
2023/02/03 07:30:00,77.8,-0.7
2023/02/03 07:40:00,77.8,-0.3
2023/02/03 07:50:00,77.7,-0.7
2023/02/03 08:00:00,77.7,-0.2
2023/02/03 08:10:00,77.7, 0.1
2023/02/03 08:20:00,77.7, 0.9
2023/02/03 08:30:00,77.7, 1.2
2023/02/03 08:40:00,77.9, 2.0
2023/02/03 08:50:00,77.7, 1.9
2023/02/03 09:00:00,77.7, 2.7
2023/02/03 09:10:00,77.7, 2.7
2023/02/03 09:20:00,77.8, 3.7
2023/02/03 09:30:00,77.7, 6.2
2023/02/03 09:40:00,77.6, 5.1
2023/02/03 09:50:00,77.8, 5.9
2023/02/03 10:00:00,77.7, 6.3
2023/02/03 10:10:00,77.7, 5.2
2023/02/03 10:20:00,77.7, 5.6
2023/02/03 10:30:00,77.0, 9.7
2023/02/03 10:40:00,76.7, 9.6
2023/02/03 10:50:00,77.4,10.2
2023/02/03 11:00:00,77.2,11.8
2023/02/03 11:10:00,77.7,10.1
2023/02/03 11:20:00,77.3,10.3
2023/02/03 11:30:00,77.3, 8.6
2023/02/03 11:40:00,77.4, 7.2
2023/02/03 11:50:00,77.4, 6.8
2023/02/03 12:00:00,77.3, 5.8
2023/02/03 12:10:00,77.3, 5.5
2023/02/03 12:20:00,76.8, 4.8
2023/02/03 12:30:00,76.5, 5.5
2023/02/03 12:40:00,76.4, 6.4
2023/02/03 12:50:00,76.1, 7.9
2023/02/03 13:00:00,76.2, 6.5
2023/02/03 13:10:00,76.9, 3.9
2023/02/03 13:20:00,77.1, 3.1
2023/02/03 13:30:00,76.8, 2.8
2023/02/03 13:40:00,76.4, 3.6
2023/02/03 13:50:00,76.2, 4.1
2023/02/03 14:00:00,76.1, 5.2
2023/02/03 14:10:00,75.9, 4.6
2023/02/03 14:20:00,75.9, 4.7
2023/02/03 14:30:00,76.2, 3.7
2023/02/03 14:40:00,76.6, 3.6
2023/02/03 14:50:00,76.2, 4.0
2023/02/03 15:00:00,75.9, 3.3
2023/02/03 15:10:00,76.0, 3.0
2023/02/03 15:20:00,75.9, 3.8
2023/02/03 15:30:00,75.8, 4.0
2023/02/03 15:40:00,75.8, 2.9
2023/02/03 15:50:00,76.1, 2.7
2023/02/03 16:00:00,75.9, 2.3
2023/02/03 16:10:00,75.7, 2.1
2023/02/03 16:20:00,75.8, 2.3
2023/02/03 16:30:00,75.9, 2.3
2023/02/03 16:40:00,75.7, 1.9
2023/02/03 16:50:00,75.7, 1.4
2023/02/03 17:00:00,75.6, 1.4
2023/02/03 17:10:00,75.4, 1.0
2023/02/03 17:20:00,75.2, 0.9
2023/02/03 17:30:00,75.0, 0.6
2023/02/03 17:40:00,75.1, 0.5
2023/02/03 17:50:00,75.3, 0.1
2023/02/03 18:00:00,75.3, 0.4
2023/02/03 18:10:00,75.4, 0.0
2023/02/03 18:20:00,75.5,-0.1
2023/02/03 18:30:00,75.5,-0.2
2023/02/03 18:40:00,75.5,-0.3
2023/02/03 18:50:00,75.3,-0.7
2023/02/03 19:00:00,75.3,-0.6
2023/02/03 19:10:00,75.3,-0.6
2023/02/03 19:20:00,75.2,-0.7
2023/02/03 19:30:00,75.2,-0.9
2023/02/03 19:40:00,75.4,-1.2
2023/02/03 19:50:00,75.5,-1.0
2023/02/03 20:00:00,75.6,-1.2
2023/02/03 20:10:00,75.7,-1.2
2023/02/03 20:20:00,76.1,-1.3
2023/02/03 20:30:00,75.8,-1.4
2023/02/03 20:40:00,75.9,-1.4
2023/02/03 20:50:00,76.0,-1.3
2023/02/03 21:00:00,75.8,-1.5
2023/02/03 21:10:00,75.8,-1.3
2023/02/03 21:20:00,75.6,-1.4
2023/02/03 21:30:00,75.4,-1.2
2023/02/03 21:40:00,75.4,-1.4
2023/02/03 21:50:00,75.3,-1.5
2023/02/03 22:00:00,75.3,-1.7
2023/02/03 22:10:00,75.2,-1.8
2023/02/03 22:20:00,75.2,-1.7
2023/02/03 22:30:00,75.3,-1.6
2023/02/03 22:40:00,75.1,-1.6
2023/02/03 22:50:00,75.1,-1.6
2023/02/03 23:00:00,75.2,-1.6
2023/02/03 23:10:00,75.0,-1.6
2023/02/03 23:20:00,74.9,-1.3
2023/02/03 23:30:00,74.8,-1.7
2023/02/03 23:40:00,74.8,-1.6
2023/02/03 23:50:00,74.8,-1.6
